Location: Azul
(36.7830°S, 59.8500°W)
Time: 09:52:30
(UTC-03:00)

ISS - Pass Details

Date: 12 December 2017
Orbit: 402 x 406 km, 51.6° (Epoch: 16 December)

Event Time Altitude Azimuth Distance (km) Brightness Sun altitude
Exits shadow 03:10:38 10° 229° (SW) 1,485 -0.9 -21.9°
Reaches altitude 10° 03:10:38 10° 228° (SW) 1,483 -0.9 -21.9°
Maximum altitude 03:12:08 12° 202° (SSW) 1,347 -0.8 -21.7°
Drops below altitude 10° 03:13:37 10° 175° (S) 1,487 -0.1 -21.6°
Sets 03:16:44 0° 143° (SE) 2,354 1.6 -21.2°
